Location: ??? ?????
(30.6482°N, 60.5850°E)
Time: 17:33:04
(UTC+00:00)

Cosmos 1300 Rocket - Pass Details

Date: 09 April 2020
Orbit: 603 x 625 km, 82.5° (Epoch: 05 June)

Event Time Altitude Azimuth Distance (km) Brightness Sun altitude
Rises 23:22:47 0° 358° (N) 2,859 7.3 -27.7°
Reaches altitude 10° 23:25:01 10° 1° (N) 1,954 6.4 -27.3°
Enters shadow 23:29:05 62° 65° (ENE) 682 3.9 -26.6°
